Location: Les Moreaux
(47.2278°N, 1.4966°E)
Time: 06:31:26
(UTC+00:00)

SeaSat 1 - Pass Details

Date: 19 May 2025
Orbit: 738 x 740 km, 108.0° (Epoch: 18 June)

Event Time Altitude Azimuth Distance (km) Brightness Sun altitude
Exits shadow 21:36:43 27° 131° (SE) 1,411 3.3 -16.4°
Maximum altitude 21:39:22 65° 57° (ENE) 815 2.6 -16.6°
Drops below altitude 10° 21:44:14 10° 337° (NNW) 2,259 6.2 -17.0°
Sets 21:46:31 0° 334° (NNW) 3,186 7.5 -17.2°
